UAAA

Almaty International Airport

Airport
ICAO code
UAAA
IATA Code
ALA
Summary
ICAO Region
APAC
ICAO Territory
Location

Almaty,

Serving
Almaty
Elevation
2234 ft
Coordinates
43° 21' 6" N , 77° 2' 11" E
KCC
Airport BS
Bird Strike
Airport WX
Fog
Metar
Observation
UAAA 062130Z 19002MPS 160V220 0250 R23R/0800N R23L/1000N FZFG VV001 M02/M03 Q1023 NOSIG RMK QBB050
Station
Almaty
Date/Time
2023-02-06 21:30:00
Wind direction
190°
Lowest cloud amount
n/a
Temperature
-2°C
Dew point
-3°C
Humidity
92%
QNH
1023 hPa
Weather condition
n/a

Description

International airport serving the city of Almaty.

Climatology

Cold Semi-arid climate (Köppen climate classification BSk). - Hot, sometimes extremely hot summers and cold, sometimes very cold winters. Some snowfall during the winter. Areas featuring cold semi-arid climates are sometimes subject to major temperature swings during a 24 hour period.

Runways

Designator Length Width Surface Rops
5/23 4397 45 ASP Yes/Yes

Airport map

Aerial View

Airport accidents

SKYbrary Partners:

Safety knowledge contributed by: